Rensselaer, IN

11:44 PM CST on February 21, 2018 (GMT -0600)
Jasper County

Weather History for KRZL - November, 2013

Change the Weather History Date:

Monday, November 4, 2013

  Actual Average (KIKK) Record (KIKK)
Temperature  
Mean Temperature 48 °F -  
Max Temperature 55 °F 55 °F 76 °F (1987)
Min Temperature 41 °F 35 °F 7 °F (1991)
Degree Days  
Heating Degree Days 17    
Moisture  
Dew Point 38 °F    
Average Humidity 69    
Maximum Humidity 87    
Minimum Humidity 51    
Precipitation  
Precipitation 0.00 in - - ()
Sea Level Pressure  
Sea Level Pressure 30.25 in    
Wind  
Wind Speed 11 mph (SE)    
Max Wind Speed 21 mph    
Max Gust Speed 28 mph    
Visibility 10 miles    
Events      
Averages and records for this station are not official NWS values.
T = Trace of Precipitation, MM = Missing Value Source: NWS Daily Summary

Daily Weather History Graph

Daily Weather History Graph

Search for Another Location

Airport or City:

Trip Planner

Search our weather history database for the weather conditions in past years. The results will help you decide how hot, cold, wet, or windy it might be!

Date:

Astronomy

Nov. 04, 2013 Rise Set
Actual Time 6:23 AM CST 4:40 PM CST
Civil Twilight 5:54 AM CST 5:09 PM CST
Nautical Twilight 5:21 AM CST 5:42 PM CST
Astronomical Twilight 4:49 AM CST 6:14 PM CST
Moon 7:33 AM CST (11/4) 5:44 PM CST (11/4)
Length of Visible Light 11h 14m
Length of Day
10h 17m
New Moon, 2% of the Moon is Illuminated
Nov 4
New Moon
Nov 9
First Quarter
Nov 17
Full
Nov 25
Last Quarter
Dec 2
New

Hourly Weather History & Observations

Time (CST) Temp. Windchill Dew Point Humidity Pressure Visibility Wind Dir Wind Speed Gust Speed Precip Events Conditions
12:15 AM 41.0 °F 34.7 °F 37.4 °F 87% 30.30 in 10.0 mi ESE 10.4 mph - N/A   Clear
12:35 AM 41.0 °F 35.2 °F 37.4 °F 87% 30.31 in 10.0 mi East 9.2 mph - N/A   Clear
12:55 AM 41.0 °F 36.4 °F 37.4 °F 87% 30.31 in 10.0 mi East 6.9 mph - N/A   Clear
1:15 AM 41.0 °F 37.1 °F 37.4 °F 87% 30.32 in 10.0 mi ESE 5.8 mph - N/A   Clear
1:35 AM 41.0 °F 34.7 °F 37.4 °F 87% 30.30 in 10.0 mi ESE 10.4 mph - N/A   Clear
1:55 AM 41.0 °F 35.2 °F 37.4 °F 87% 30.31 in 10.0 mi ESE 9.2 mph - N/A   Clear
2:15 AM 41.0 °F 35.2 °F 37.4 °F 87% 30.30 in 10.0 mi ESE 9.2 mph - N/A   Clear
2:35 AM 41.0 °F 35.2 °F 35.6 °F 81% 30.30 in 10.0 mi SE 9.2 mph - N/A   Clear
2:55 AM 41.0 °F 35.8 °F 35.6 °F 81% 30.30 in 10.0 mi ESE 8.1 mph - N/A   Clear
3:15 AM 41.0 °F 35.8 °F 35.6 °F 81% 30.30 in 10.0 mi ESE 8.1 mph - N/A   Clear
3:35 AM 41.0 °F 35.2 °F 35.6 °F 81% 30.29 in 10.0 mi ESE 9.2 mph - N/A   Clear
3:55 AM 42.8 °F 37.5 °F 35.6 °F 76% 30.30 in 10.0 mi ESE 9.2 mph - N/A   Clear
4:15 AM 42.8 °F 37.5 °F 35.6 °F 76% 30.31 in 10.0 mi SE 9.2 mph - N/A   Clear
4:35 AM 42.8 °F 37.5 °F 35.6 °F 76% 30.31 in 10.0 mi SE 9.2 mph - N/A   Clear
4:55 AM 42.8 °F 37.5 °F 35.6 °F 76% 30.30 in 10.0 mi ESE 9.2 mph - N/A   Clear
5:15 AM 42.8 °F 37.5 °F 35.6 °F 76% 30.30 in 10.0 mi ESE 9.2 mph - N/A   Clear
5:35 AM 42.8 °F 37.5 °F 35.6 °F 76% 30.29 in 10.0 mi ESE 9.2 mph - N/A   Clear
5:55 AM 42.8 °F 37.0 °F 37.4 °F 81% 30.29 in 10.0 mi SE 10.4 mph - N/A   Clear
6:15 AM 42.8 °F 37.5 °F 37.4 °F 81% 30.29 in 10.0 mi SE 9.2 mph - N/A   Clear
6:35 AM 42.8 °F 37.5 °F 37.4 °F 81% 30.30 in 10.0 mi SE 9.2 mph - N/A   Clear
6:55 AM 42.8 °F 37.0 °F 37.4 °F 81% 30.29 in 10.0 mi ESE 10.4 mph - N/A   Clear
7:15 AM 42.8 °F 37.0 °F 37.4 °F 81% 30.28 in 10.0 mi ESE 10.4 mph - N/A   Clear
7:35 AM 42.8 °F 37.5 °F 37.4 °F 81% 30.29 in 10.0 mi SE 9.2 mph 16.1 mph N/A   Clear
7:55 AM 44.6 °F 39.2 °F 37.4 °F 76% 30.29 in 10.0 mi SE 10.4 mph - N/A   Clear
8:15 AM 44.6 °F 38.1 °F 37.4 °F 76% 30.29 in 10.0 mi SE 13.8 mph 17.3 mph N/A   Clear
8:35 AM 44.6 °F 38.4 °F 37.4 °F 76% 30.28 in 10.0 mi SE 12.7 mph - N/A   Clear
8:55 AM 46.4 °F 40.4 °F 37.4 °F 71% 30.29 in 10.0 mi SE 13.8 mph 18.4 mph N/A   Clear
9:15 AM 48.2 °F - 37.4 °F 66% 30.27 in 10.0 mi SE 16.1 mph 19.6 mph N/A   Clear
9:35 AM 48.2 °F - 37.4 °F 66% 30.28 in 10.0 mi SE 19.6 mph 25.3 mph N/A   Clear
9:55 AM 50.0 °F - 37.4 °F 62% 30.28 in 10.0 mi SE 20.7 mph 27.6 mph N/A   Clear
10:15 AM 50.0 °F - 37.4 °F 62% 30.27 in 10.0 mi SSE 13.8 mph - N/A   Clear
10:35 AM 50.0 °F - 37.4 °F 62% 30.27 in 10.0 mi SSE 17.3 mph 24.2 mph N/A   Clear
10:55 AM 51.8 °F - 37.4 °F 58% 30.26 in 10.0 mi SSE 18.4 mph 23.0 mph N/A   Clear
11:15 AM 51.8 °F - 37.4 °F 58% 30.25 in 10.0 mi SSE 16.1 mph - N/A   Clear
11:35 AM 51.8 °F - 39.2 °F 62% 30.24 in 10.0 mi SSE 17.3 mph 21.9 mph N/A   Clear
11:55 AM 51.8 °F - 37.4 °F 58% 30.22 in 10.0 mi SSE 16.1 mph 23.0 mph N/A   Clear
12:15 PM 53.6 °F - 39.2 °F 58% 30.23 in 10.0 mi SSE 16.1 mph - N/A   Clear
12:35 PM 53.6 °F - 37.4 °F 54% 30.23 in 10.0 mi South 12.7 mph 18.4 mph N/A   Clear
12:55 PM 53.6 °F - 35.6 °F 51% 30.21 in 10.0 mi SSE 12.7 mph 19.6 mph N/A   Clear
1:15 PM 53.6 °F - 35.6 °F 51% 30.19 in 10.0 mi SSE 15.0 mph 23.0 mph N/A   Clear
1:35 PM 53.6 °F - 37.4 °F 54% 30.20 in 10.0 mi SSE 15.0 mph 18.4 mph N/A   Scattered Clouds
1:55 PM 53.6 °F - 37.4 °F 54% 30.20 in 10.0 mi SSE 10.4 mph - N/A   Clear
2:15 PM 53.6 °F - 37.4 °F 54% 30.20 in 10.0 mi SSE 13.8 mph 19.6 mph N/A   Clear
2:35 PM 55.4 °F - 37.4 °F 51% 30.20 in 10.0 mi SSE 10.4 mph - N/A   Clear
2:55 PM 55.4 °F - 37.4 °F 51% 30.20 in 10.0 mi South 13.8 mph 18.4 mph N/A   Clear
3:15 PM 55.4 °F - 37.4 °F 51% 30.19 in 10.0 mi South 12.7 mph - N/A   Clear
3:35 PM 55.4 °F - 37.4 °F 51% 30.19 in 10.0 mi South 11.5 mph - N/A   Clear
3:55 PM 55.4 °F - 37.4 °F 51% 30.19 in 10.0 mi South 16.1 mph - N/A   Clear
4:15 PM 53.6 °F - 37.4 °F 54% 30.19 in 10.0 mi South 10.4 mph - N/A   Clear
4:35 PM 53.6 °F - 37.4 °F 54% 30.19 in 10.0 mi SSE 10.4 mph - N/A   Scattered Clouds
4:55 PM 53.6 °F - 39.2 °F 58% 30.19 in 10.0 mi SSE 11.5 mph - N/A   Mostly Cloudy
5:15 PM 53.6 °F - 39.2 °F 58% 30.19 in 10.0 mi SSE 10.4 mph - N/A   Overcast
5:35 PM 53.6 °F - 39.2 °F 58% 30.20 in 10.0 mi SSE 11.5 mph - N/A   Overcast
5:55 PM 51.8 °F - 39.2 °F 62% 30.20 in 10.0 mi SSE 10.4 mph - N/A   Mostly Cloudy
6:15 PM 51.8 °F - 39.2 °F 62% 30.21 in 10.0 mi SSE 9.2 mph - N/A   Mostly Cloudy
6:35 PM 51.8 °F - 39.2 °F 62% 30.22 in 10.0 mi SSE 10.4 mph - N/A   Mostly Cloudy
6:55 PM 51.8 °F - 41.0 °F 67% 30.22 in 10.0 mi SSE 9.2 mph - N/A   Mostly Cloudy
7:15 PM 51.8 °F - 41.0 °F 67% 30.23 in 10.0 mi SSE 8.1 mph - N/A   Mostly Cloudy
7:35 PM 50.0 °F - 41.0 °F 71% 30.23 in 10.0 mi SSE 8.1 mph - N/A   Mostly Cloudy
7:55 PM 50.0 °F - 41.0 °F 71% 30.23 in 10.0 mi SSE 9.2 mph - N/A   Clear
8:15 PM 50.0 °F - 41.0 °F 71% 30.24 in 10.0 mi SSE 9.2 mph - N/A   Mostly Cloudy
8:35 PM 50.0 °F - 41.0 °F 71% 30.24 in 10.0 mi SSE 9.2 mph - N/A   Overcast
8:55 PM 50.0 °F - 41.0 °F 71% 30.24 in 10.0 mi SSE 10.4 mph - N/A   Overcast
9:15 PM 50.0 °F - 41.0 °F 71% 30.24 in 10.0 mi SSE 10.4 mph - N/A   Overcast
9:35 PM 50.0 °F - 41.0 °F 71% 30.25 in 10.0 mi SSE 8.1 mph - N/A   Overcast
9:55 PM 50.0 °F - 41.0 °F 71% 30.24 in 10.0 mi South 8.1 mph - N/A   Overcast
10:15 PM 50.0 °F - 41.0 °F 71% 30.24 in 10.0 mi South 10.4 mph - N/A   Overcast
10:35 PM 51.8 °F - 41.0 °F 67% 30.24 in 10.0 mi South 9.2 mph - N/A   Overcast
10:55 PM 51.8 °F - 41.0 °F 67% 30.24 in 10.0 mi South 9.2 mph - N/A   Overcast
11:15 PM 51.8 °F - 41.0 °F 67% 30.24 in 10.0 mi South 10.4 mph - N/A   Overcast
11:35 PM 51.8 °F - 41.0 °F 67% 30.24 in 10.0 mi South 10.4 mph - N/A   Overcast
11:55 PM 51.8 °F - 41.0 °F 67% 30.25 in 10.0 mi South 11.5 mph - N/A   Overcast